XML Sitemap

This is a XML Sitemap which is supposed to be processed by search engines which follow the XML Sitemap standard like Ask.com, Bing, Google and Yahoo.
It was generated using the Blogging-Software WordPress and the Google Sitemap Generator Plugin by Arne Brachhold.
You can find more information about XML sitemaps on sitemaps.org and Google's list of sitemap programs.

URLPriorityChange frequencyLast modified (GMT)
https://www.100bike.ru/tires/pokryshka-26x20-beetle-juice-panaracerauthor/60%Monthly2013-01-09 10:09
https://www.100bike.ru/tires/pokryshka-kenda-700x35s-k935-khan-reflective/60%Monthly2013-01-09 10:12
https://www.100bike.ru/tires/pokryshka-kenda-700x35s-k161-cross-cyclo/60%Monthly2013-01-09 10:12
https://www.100bike.ru/tires/pokryshka-kenda-700x23s-k196-kontender/60%Monthly2013-01-09 10:12
https://www.100bike.ru/tires/pokryshka-kenda-26x210k1013-klondike-xt/60%Monthly2013-01-09 10:09
https://www.100bike.ru/tires/pokryshka-kenda-26x195k946-klondike/60%Monthly2013-01-09 10:09
https://www.100bike.ru/tires/pokryshka-kenda-26x195k829/60%Monthly2013-01-09 10:09
https://www.100bike.ru/tires/pokryshka-kenda-zadnyaya-26x235-k887-kinetics-rear/60%Monthly2013-01-09 10:09
https://www.100bike.ru/tires/pokryshka-kenda-26x2125-k80/60%Monthly2013-01-09 10:13
https://www.100bike.ru/tires/pokryshka-kenda-26x210-k1010-nevegal/60%Monthly2013-01-09 10:13
https://www.100bike.ru/tires/pokryshka-kenda-26x210-k898-reflective/60%Monthly2013-01-09 10:13
https://www.100bike.ru/tires/pokryshka-kenda-26x210-k892/60%Monthly2013-01-09 10:13
https://www.100bike.ru/tires/pokryshka-kenda-26x175-k197-eurotrek/60%Monthly2013-01-09 10:13
https://www.100bike.ru/tires/pokryshka-kenda-26x210-k817/60%Monthly2013-01-09 10:13
https://www.100bike.ru/tires/pokryshka-kenda-26x210-k849/60%Monthly2013-01-09 10:13
https://www.100bike.ru/tires/pokryshka-kenda-26x210-k902r-koyote/60%Monthly2013-01-09 10:13
https://www.100bike.ru/tires/pokryshka-kenda-26x210-k901f-koyote/60%Monthly2013-01-09 10:13
https://www.100bike.ru/tires/pokryshka-kenda-26x210k846/60%Monthly2013-01-09 10:13
https://www.100bike.ru/tires/pokryshka-kenda-26x210-k886-klaw/60%Monthly2013-01-09 10:13
https://www.100bike.ru/tires/pokryshka-kenda-26x210-k876-klaw/60%Monthly2013-01-09 10:13
https://www.100bike.ru/tires/pokryshka-kenda-26x230-k905-k-rad/60%Monthly2013-01-09 10:13
https://www.100bike.ru/tires/pokryshka-kenda-26x230k1016-kiniption/60%Monthly2013-01-09 10:13
https://www.100bike.ru/tires/pokryshka-kenda-26x200-k878-krisp/60%Monthly2013-01-09 10:13
https://www.100bike.ru/tires/pokryshka-kenda-26x200-60-tpi-l3r-k917-karma/60%Monthly2013-01-09 10:13
https://www.100bike.ru/tires/pokryshka-kenda-26x200-30-tpi-k917-karma/60%Monthly2013-01-09 10:13
https://www.100bike.ru/tires/pokryshka-kenda-26x200-k885-kobra/60%Monthly2013-01-09 10:13
https://www.100bike.ru/tires/pokryshka-kenda-26x195-k193-kwest/60%Monthly2013-01-09 10:13
https://www.100bike.ru/tires/pokryshka-kenda-26x195-k839/60%Monthly2013-01-09 10:13
https://www.100bike.ru/tires/pokryshka-kenda-26x195-k935-khan-3/60%Monthly2018-02-06 08:08
https://www.100bike.ru/tires/pokryshka-kenda-26x195-k935-khan/60%Monthly2013-01-09 10:37
https://www.100bike.ru/tires/pokryshka-kenda-26x195-k879-kwick/60%Monthly2013-01-09 10:37
https://www.100bike.ru/tires/pokryshka-kenda-26x195-k838/60%Monthly2013-01-09 10:37
https://www.100bike.ru/tires/pokryshka-kenda-26x195-k847-kross-plus/60%Monthly2013-01-09 10:37
https://www.100bike.ru/tires/pokryshka-kenda-24x230k1016-kiniption/60%Monthly2013-01-09 10:38
https://www.100bike.ru/tires/pokryshka-kenda-24x230k905-k-rad/60%Monthly2013-01-09 10:38
https://www.100bike.ru/tires/pokryshka-kenda-24x2125-k80/60%Monthly2013-01-09 10:38
https://www.100bike.ru/tires/pokryshka-kenda-24x210k887-kinetics/60%Monthly2013-01-09 10:38
https://www.100bike.ru/tires/pokryshka-kenda-24x195-k935-khan/60%Monthly2013-01-09 10:38
https://www.100bike.ru/tires/pokryshka-kenda-20x225-k929/60%Monthly2013-01-09 10:38
https://www.100bike.ru/tires/pokryshka-kenda-20x225-k841-kontakt/60%Monthly2013-01-09 10:38
https://www.100bike.ru/tires/pokryshka-kenda-20x2125-k905-k-rad/60%Monthly2013-10-10 11:54
https://www.100bike.ru/tires/pokryshka-kenda-20x210k1016-kiniption/60%Monthly2013-01-09 10:38
https://www.100bike.ru/tires/pokryshka-kenda-20x195-k935-khan-reflective/60%Monthly2013-01-09 10:38
https://www.100bike.ru/tires/pokryshka-kenda-20x195-k893-kikzumbit/60%Monthly2013-01-09 10:38
https://www.100bike.ru/tires/pokryshka-kenda-20x175-k909a/60%Monthly2013-01-09 10:38
https://www.100bike.ru/tires/pokryshka-kenda-20x15-k1038/60%Monthly2013-01-09 10:38
https://www.100bike.ru/tires/pokryshka-kenda-18x195-k817/60%Monthly2013-01-09 10:39
https://www.100bike.ru/tires/pokryshka-kenda-18x175-k44/60%Monthly2013-01-09 10:39
https://www.100bike.ru/tires/pokryshka-kenda-16x200k879-kwick/60%Monthly2013-01-09 10:40
https://www.100bike.ru/tires/pokryshka-kenda-16x175-k912/60%Monthly2013-01-09 10:40
https://www.100bike.ru/tires/pokryshka-kenda-16x2125-k846/60%Monthly2013-01-09 10:40
https://www.100bike.ru/tires/pokryshka-kenda-14x2125-k50/60%Monthly2013-01-09 10:40
https://www.100bike.ru/tires/pokryshka-kenda-12-12x2-14-k909/60%Monthly2013-01-09 10:40
https://www.100bike.ru/tires/pokryshka-kenda-12-12x2-14-k921/60%Monthly2013-01-09 10:40
https://www.100bike.ru/tires/pokryshka-kenda-12-12x2-14-k912/60%Monthly2013-01-09 10:40